Weather History for KPRN - February, 2012

Change the Weather History Date:

Tuesday, February 7, 2012

  Actual Average (KTOI) Record (KTOI)
Temperature  
Mean Temperature 54 °F 48 °F  
Max Temperature 64 °F 60 °F - ()
Min Temperature 44 °F 36 °F - ()
Degree Days  
Heating Degree Days 10 17  
Month to date heating degree days 120  
Since 1 July heating degree days 1612  
Growing Degree Days 4 (Base 50)    
Moisture  
Dew Point 43 °F    
Average Humidity 74    
Maximum Humidity 96    
Minimum Humidity 34    
Precipitation  
Precipitation 0.00 in 0.16 in - ()
Month to date precipitation 1.08  
Year to date precipitation 5.63  
Snow  
Snow 0.00 in - - ()
Month to date snowfall  
Since 1 July snowfall  
Snow Depth -    
Sea Level Pressure  
Sea Level Pressure 30.15 in    
Wind  
Wind Speed 4 mph (North)    
Max Wind Speed 7 mph    
Max Gust Speed -    
Visibility 10 miles    
Events      
T = Trace of Precipitation, MM = Missing Value Source: NWS Daily Summary

Daily Weather History Graph

Daily Weather History Graph

Search for Another Location

Airport or City:

Trip Planner

Search our weather history database for the weather conditions in past years. The results will help you decide how hot, cold, wet, or windy it might be!

Date:

Astronomy

Feb. 07, 2012 Rise Set
Actual Time 6:35 AM CST 5:25 PM CST
Civil Twilight 6:10 AM CST 5:51 PM CST
Nautical Twilight 5:41 AM CST 6:19 PM CST
Astronomical Twilight 5:12 AM CST 6:48 PM CST
Moon 5:32 PM CST (2/7) 6:06 AM CST (2/7)
Length of Visible Light 11h 40m
Length of Day
10h 49m
Full, 100% of the Moon is Illuminated
Feb 7
Full
Feb 7
Full
Feb 14
Last Quarter
Feb 21
New
Feb 29
First Quarter

Hourly Weather History & Observations

Time (CST) Temp. Windchill Dew Point Humidity Pressure Visibility Wind Dir Wind Speed Gust Speed Precip Events Conditions
12:56 AM 50.0 °F - 44.1 °F 80% 30.14 in 10.0 mi North 3.5 mph - N/A   Clear
1:56 AM 48.9 °F - 44.1 °F 83% 30.14 in 10.0 mi North 3.5 mph - N/A   Clear
2:56 AM 48.9 °F - 44.1 °F 83% 30.14 in 10.0 mi North 4.6 mph - N/A   Clear
3:03 AM 48.0 °F - 44.1 °F 86% 30.14 in 10.0 mi NNE 4.6 mph - N/A   Scattered Clouds
3:11 AM 48.0 °F - 44.1 °F 86% 30.15 in 10.0 mi NNE 3.5 mph - N/A   Mostly Cloudy
3:56 AM 48.9 °F - 46.0 °F 90% 30.15 in 10.0 mi North 3.5 mph - N/A   Overcast
4:31 AM 48.9 °F - 46.0 °F 90% 30.15 in 10.0 mi North 3.5 mph - N/A   Scattered Clouds
4:56 AM 48.0 °F - 46.0 °F 93% 30.15 in 10.0 mi NNE 3.5 mph - N/A   Clear
5:56 AM 46.9 °F - 44.1 °F 90% 30.16 in 10.0 mi North 4.6 mph - N/A   Clear
6:11 AM 46.9 °F - 44.1 °F 90% 30.17 in 10.0 mi NNE 3.5 mph - N/A   Scattered Clouds
6:20 AM 46.9 °F - 44.1 °F 90% 30.17 in 10.0 mi NNE 4.6 mph - N/A   Mostly Cloudy
6:56 AM 46.0 °F 43.1 °F 45.0 °F 96% 30.17 in 6.0 mi NE 5.8 mph - N/A   Mostly Cloudy
7:56 AM 48.0 °F - 46.0 °F 93% 30.19 in 6.0 mi Calm Calm - N/A   Overcast
8:56 AM 50.0 °F - 46.0 °F 86% 30.19 in 7.0 mi North 4.6 mph - N/A   Overcast
9:18 AM 51.1 °F - 46.0 °F 83% 30.19 in 10.0 mi NNW 4.6 mph - N/A   Partly Cloudy
9:56 AM 55.9 °F - 46.0 °F 69% 30.19 in 10.0 mi NE 5.8 mph - N/A   Clear
10:56 AM 59.0 °F - 46.0 °F 62% 30.17 in 10.0 mi Variable 4.6 mph - N/A   Clear
11:56 AM 63.0 °F - 43.0 °F 48% 30.16 in 10.0 mi NNW 6.9 mph - N/A   Clear
12:56 PM 64.0 °F - 41.0 °F 43% 30.13 in 10.0 mi North 5.8 mph - N/A   Clear
1:56 PM 64.0 °F - 39.0 °F 40% 30.11 in 10.0 mi Variable 5.8 mph - N/A   Clear
2:56 PM 64.9 °F - 41.0 °F 42% 30.11 in 10.0 mi NE 6.9 mph - N/A   Clear
3:56 PM 64.9 °F - 36.0 °F 34% 30.11 in 10.0 mi NNE 6.9 mph - N/A   Clear
4:56 PM 63.0 °F - 39.0 °F 41% 30.11 in 10.0 mi North 6.9 mph - N/A   Clear
5:56 PM 57.9 °F - 39.0 °F 49% 30.12 in 10.0 mi Calm Calm - N/A   Clear
6:56 PM 53.1 °F - 41.0 °F 64% 30.14 in 10.0 mi NNW 3.5 mph - N/A   Clear
7:56 PM 51.1 °F - 41.0 °F 68% 30.15 in 10.0 mi Calm Calm - N/A   Clear
8:56 PM 48.0 °F - 42.1 °F 80% 30.17 in 10.0 mi Calm Calm - N/A   Clear
9:56 PM 46.0 °F 44.8 °F 41.0 °F 83% 30.18 in 10.0 mi North 3.5 mph - N/A   Clear
10:56 PM 45.0 °F - 39.9 °F 82% 30.17 in 10.0 mi Calm Calm - N/A   Clear
11:56 PM 44.1 °F 41.5 °F 39.0 °F 82% 30.17 in 10.0 mi NNW 4.6 mph - N/A   Clear